7 * 24
多渠道服务支持
STARLINK-11164是美国SpaceX公司星链(Starlink)星座的组成卫星,于2024年6月24日发射。星链项目旨在构建全球覆盖的低轨宽带互联网系统,为全球提供高速网络接入服务。该卫星属量产型低轨通信卫星,采用平板设计与氪工质霍尔推进器,具备自主避撞能力,寿命末期会主动离轨坠入大气层烧毁,服务全球偏远地区网络接入需求。
美国
(US)
| 数据来源 | 国际轨道数据 |
| 星历时间: | 2026-09-10T23:27:34+0800 16小时前 查看轨道信息 |
| 半长轴: | 6737.868km |
| 偏心率: | 0.0001196 |
| 轨道倾角: | 53.159° |
| 近地点辐角 | 57.161° |
| 升交点赤经 | 29.417° |
| 平近点角 | 302.952° |
| 近地点: | 358.925km |
| 远地点: | 360.537km |
| 周期: | 91.737分钟 |
| 每日圈数: | 15.697088 |